Volver al catálogo

FLOCK 4G 27

ActivoCienciaSSO
NORAD 62641·PAYLOAD·🇺🇸 United States

Lanzado Jan 14, 2025 desde Vandenberg Space Force Base

Loading…

Próximos Pases (próximas 24 horas)

TLE

ActualizadoSource: CelesTrak SupGP

Época: Sep 14, 2026, 18:45 UTC

1 62641C 25009AJ  26257.78146991  .00005081  00000+0  17079-3 0  2579
2 62641  97.3883 338.7254 0002097  34.7636 197.8654 15.30876629    16

Sigue FLOCK 4G 27 en tiempo real con AllMySat

Download on the App Store